Location: Huntsville
(41.2590°N, 111.7678°W)
Time: 00:59:47
(UTC+00:00)

Envisat - Pass Details

Date: 08 December 2021
Orbit: 764 x 766 km, 98.2° (Epoch: 16 January)

Event Time Altitude Azimuth Distance (km) Brightness Sun altitude
Rises 00:57:05 0° 213° (SSW) 3,219 7.2 -10.9°
Reaches altitude 10° 01:00:27 10° 236° (WSW) 2,299 6.9 -11.5°
Maximum altitude 01:03:13 15° 270° (W) 1,996 6.3 -12.0°
Drops below altitude 10° 01:06:00 10° 303° (WNW) 2,309 6.0 -12.5°
Sets 01:09:24 0° 327° (NNW) 3,241 6.4 -13.1°
